CW0009 Weather Reports


Display with metric or nautical units.
time (UTC)temp
F
wind
direction
speed
MPH
gust
MPH
rain 1hr
in
rain 24hr
in
rain mn
in
humidity
%
barometer
mb
20170817192011 67 200 6.0 8.0 0.00 0.01 0.01 86 1014.0
20170817191012 67 185 6.0 7.0 0.00 0.01 0.01 86 1014.0
20170817190011 68 190 7.0 8.0 0.00 0.01 0.01 86 1014.0
20170817185011 68 175 8.0 12.0 0.00 0.01 0.01 86 1014.0
20170817184012 68 185 8.0 9.0 0.00 0.01 0.01 86 1014.0
20170817183013 69 185 8.0 8.0 0.00 0.01 0.01 86 1014.0
20170817182011 69 180 8.0 9.0 0.00 0.01 0.01 86 1014.0
20170817181011 69 190 8.0 12.0 0.00 0.01 0.01 86 1014.0
20170817180012 69 170 8.0 12.0 0.00 0.01 0.01 87 1014.0
20170817175033 69 185 8.0 10.0 0.00 0.01 0.01 87 1014.0
20170817173013 69 175 9.0 10.0 0.00 0.01 0.01 87 1014.0
20170817172011 70 175 9.0 10.0 0.00 0.01 0.01 87 1014.0
20170817170012 69 185 9.0 9.0 0.00 0.01 0.01 87 1014.0
20170817165012 69 175 10.0 13.0 0.00 0.01 0.01 87 1014.0
20170817164011 69 190 10.0 14.0 0.00 0.01 0.01 87 1014.0
20170817163013 69 190 12.0 14.0 0.00 0.01 0.01 87 1014.0
20170817162032 69 180 12.0 15.0 0.00 0.01 0.01 86 1014.0
20170817161011 69 185 9.0 13.0 0.00 0.01 0.01 87 1014.0
20170817155012 69 190 9.0 12.0 0.00 0.01 0.01 86 1014.0
20170817154012 69 185 10.0 12.0 0.00 0.01 0.01 86 1014.0
20170817153032 68 195 10.0 14.0 0.00 0.01 0.01 86 1014.0
20170817152031 68 175 10.0 12.0 0.00 0.01 0.01 86 1014.0
20170817151033 68 180 9.0 12.0 0.00 0.01 0.01 86 1014.0
20170817150032 68 200 9.0 9.0 0.00 0.01 0.01 86 1014.0
20170817145011 68 180 10.0 15.0 0.00 0.01 0.01 86 1014.0
20170817144034 68 185 12.0 15.0 0.00 0.01 0.01 86 1014.0
20170817143014 68 200 12.0 14.0 0.00 0.01 0.01 86 1014.0
20170817142011 68 200 12.0 14.0 0.00 0.01 0.01 86 1015.0
20170817141011 68 200 10.0 14.0 0.00 0.01 0.01 86 1014.0
20170817140012 68 185 12.0 10.0 0.00 0.01 0.01 86 1014.0
20170817135011 68 185 10.0 15.0 0.00 0.01 0.01 86 1014.0
20170817134033 68 200 9.0 12.0 0.00 0.01 0.01 86 1015.0
20170817133013 68 220 10.0 15.0 0.00 0.01 0.01 86 1014.0
20170817132010 68 200 10.0 15.0 0.00 0.01 0.01 86 1014.0
20170817131010 68 190 9.0 12.0 0.00 0.01 0.01 86 1014.0
20170817125011 68 205 8.0 9.0 0.00 0.01 0.01 86 1014.0
20170817121010 67 200 9.0 13.0 0.00 0.01 0.01 87 1014.0
20170817120031 66 200 10.0 12.0 0.00 0.01 0.01 87 1014.0
20170817113029 66 210 13.0 14.0 0.00 0.01 0.01 87 1014.0
20170817112010 66 195 12.0 15.0 0.00 0.01 0.01 87 1014.0
20170817111012 66 210 12.0 12.0 0.00 0.01 0.01 87 1014.0
20170817110032 66 205 12.0 13.0 0.00 0.01 0.01 87 1014.0
20170817105011 66 210 12.0 14.0 0.00 0.01 0.01 87 1014.0
20170817104032 66 195 12.0 13.0 0.00 0.01 0.01 87 1014.0
20170817103011 66 200 12.0 15.0 0.00 0.01 0.01 87 1014.0
20170817102011 66 210 12.0 14.0 0.01 0.01 0.01 87 1014.0
20170817101011 66 210 10.0 15.0 0.01 0.01 0.01 87 1014.0
20170817095010 66 215 13.0 15.0 0.01 0.01 0.01 87 1014.0
20170817094011 66 220 10.0 14.0 0.01 0.01 0.01 87 1014.0
20170817093013 67 200 6.0 15.0 0.01 0.01 0.01 87 1014.0
20170817092011 67 190 2.0 5.0 0.00 0.00 0.00 87 1014.0
20170817091011 67 195 3.0 5.0 0.00 0.00 0.00 87 1014.0
20170817090032 66 180 5.0 5.0 0.00 0.00 0.00 87 1014.0
20170817085010 66 180 6.0 9.0 0.00 0.00 0.00 87 1014.0
20170817084011 66 185 3.0 5.0 0.00 0.00 0.00 87 1014.0
20170817083041 66 175 3.0 5.0 0.00 0.00 0.00 87 1014.0
20170817082010 65 180 2.0 5.0 0.00 0.00 0.00 87 1014.0
20170817081011 65 185 4.0 5.0 0.00 0.00 0.00 87 1014.0
20170817080011 65 180 6.0 8.0 0.00 0.00 0.00 87 1014.0
20170817075011 64 165 5.0 8.0 0.00 0.00 0.00 87 1014.0
20170817074011 64 165 3.0 8.0 0.00 0.00 0.00 87 1014.0
20170817073013 64 160 1.0 5.0 0.00 0.00 0.00 88 1014.0
20170817072011 63 150 0.0 1.0 0.00 0.00 0.00 87 1014.0
20170817071011 62 175 2.0 2.0 0.00 0.00 0.00 87 1014.0
20170817070009 62 160 1.0 2.0 0.00 0.00 0.00 87 1014.0
20170817062011 61 155 0.0 0.0 0.00 0.00 0.00 87 1015.0
20170817061010 61 155 0.0 0.0 0.00 0.00 0.00 87 1015.0
20170817060030 61 160 0.0 0.0 0.00 0.00 0.00 88 1015.0
20170817055011 61 155 0.0 0.0 0.00 0.00 0.00 88 1015.0
20170817054011 61 160 0.0 0.0 0.00 0.00 0.00 88 1015.0
20170817053032 60 160 0.0 0.0 0.00 0.00 0.00 88 1015.0
20170817052011 60 160 1.0 1.0 0.00 0.00 0.00 88 1015.0
20170817051032 60 160 1.0 3.0 0.00 0.00 0.00 88 1015.0
20170817050010 60 160 2.0 2.0 0.00 0.00 0.00 88 1015.0
20170817045011 60 155 2.0 3.0 0.00 0.00 0.00 88 1015.0
20170817044011 60 155 2.0 3.0 0.00 0.00 0.00 88 1015.0
20170817043011 60 155 2.0 3.0 0.00 0.00 0.00 88 1015.0
20170817042011 60 170 5.0 5.0 0.00 0.00 0.00 88 1015.0
20170817041012 60 155 3.0 5.0 0.00 0.00 0.00 88 1015.0
20170817040011 60 150 2.0 3.0 0.00 0.00 0.00 88 1015.0
20170817035010 60 160 2.0 3.0 0.00 0.00 0.00 88 1015.0
20170817034032 59 160 2.0 3.0 0.00 0.00 0.00 88 1015.0
20170817033013 59 160 1.0 1.0 0.00 0.00 0.00 88 1015.0
20170817032010 59 160 2.0 2.0 0.00 0.00 0.00 88 1015.0
20170817030010 59 165 1.0 1.0 0.00 0.00 0.00 88 1016.0
20170817025011 59 160 2.0 2.0 0.00 0.00 0.00 88 1016.0
20170817024011 59 160 1.0 2.0 0.00 0.00 0.00 88 1016.0
20170817023012 59 170 0.0 2.0 0.00 0.00 0.00 88 1016.0
20170817022010 59 295 0.0 0.0 0.00 0.00 0.00 88 1016.0
20170817020036 59 315 0.0 0.0 0.00 0.00 0.00 88 1017.0
20170817015010 58 315 0.0 0.0 0.00 0.00 0.00 88 1017.0
20170817014011 58 315 0.0 0.0 0.00 0.00 0.00 88 1017.0
20170817013033 59 315 0.0 0.0 0.00 0.00 0.00 88 1017.0
20170817011031 59 315 0.0 0.0 0.00 0.00 0.00 88 1017.0
20170817010032 59 315 0.0 0.0 0.00 0.00 0.00 88 1017.0
20170817005011 59 315 0.0 0.0 0.00 0.00 0.00 88 1017.0
20170817004033 59 315 0.0 0.0 0.00 0.00 0.00 88 1017.0
20170817003034 59 315 0.0 0.0 0.00 0.00 0.00 88 1017.0
20170817002011 59 315 0.0 0.0 0.00 0.00 0.00 87 1017.0
20170817001011 59 315 0.0 0.0 0.00 0.00 0.00 87 1017.0
20170817000010 59 315 0.0 0.0 0.00 0.00 0.00 87 1018.0
20170816235011 59 315 0.0 0.0 0.00 0.00 0.00 87 1018.0
20170816234011 59 315 0.0 0.0 0.00 0.00 0.00 87 1018.0
20170816233012 59 315 0.0 0.0 0.00 0.00 0.00 87 1018.0
20170816232011 60 315 0.0 0.0 0.00 0.00 0.00 87 1018.0
20170816231033 60 315 0.0 0.0 0.00 0.00 0.00 87 1018.0
20170816230010 60 315 0.0 0.0 0.00 0.00 0.00 87 1018.0
20170816225011 60 315 0.0 0.0 0.00 0.00 0.00 87 1018.0
20170816224011 60 315 0.0 0.0 0.00 0.00 0.00 87 1018.0
20170816223013 61 315 0.0 0.0 0.00 0.00 0.00 86 1018.0
20170816222031 61 315 0.0 0.0 0.00 0.00 0.00 86 1018.0
20170816221011 61 315 0.0 0.0 0.00 0.00 0.00 86 1018.0
20170816220012 62 315 0.0 0.0 0.00 0.00 0.00 86 1018.0
20170816214033 62 315 0.0 0.0 0.00 0.00 0.00 86 1018.0
20170816213033 63 315 0.0 0.0 0.00 0.00 0.00 86 1019.0
20170816212032 63 315 0.0 0.0 0.00 0.00 0.00 86 1019.0
20170816211032 63 315 0.0 0.0 0.00 0.00 0.00 85 1019.0
20170816210011 64 315 0.0 0.0 0.00 0.00 0.00 85 1019.0
20170816205032 64 315 0.0 0.0 0.00 0.00 0.00 85 1019.0
20170816204031 64 315 0.0 0.0 0.00 0.00 0.00 85 1019.0
20170816203014 65 315 0.0 0.0 0.00 0.00 0.00 85 1019.0
20170816202011 65 315 0.0 0.0 0.00 0.00 0.00 85 1019.0
20170816201032 66 315 0.0 0.0 0.00 0.00 0.00 84 1020.0
20170816200010 66 315 0.0 0.0 0.00 0.00 0.00 84 1020.0
20170816195032 67 315 0.0 0.0 0.00 0.00 0.00 84 1020.0
20170816194010 67 315 0.0 0.0 0.00 0.00 0.00 84 1019.0
20170816193012 68 315 0.0 0.0 0.00 0.00 0.00 83 1020.0